Miscellaneous Local Product
Issued by NWS Hastings, NE

Home | Current Version | Previous Version | Text Only | Print | Product List | Glossary On
Versions: 1 2 3 4 5 6 7 8 9 10 11 12 13 14 15 16 17 18 19 20 21 22 23 24 25 26 27 28 29 30 31 32 33 34 35 36 37 38 39 40 41 42 43 44 45 46 47 48 49 50
000
AXUS43 KGID 011002
MISGRI

GID CWA HOURLY WEATHER ROUNDUP
NATIONAL WEATHER SERVICE HASTINGS NE
400 AM CST SUN FEB 01 2015

NOTE: "FAIR" INDICATES FEW OR NO CLOUDS BELOW 12,000 FEET WITH NO
SIGNIFICANT WEATHER AND/OR OBSTRUCTIONS TO VISIBILITY.

...SOUTH CENTRAL NEBRASKA...

CITY           SKY/WX    TMP DP  RH WIND       PRES   REMARKS
GRAND ISLAND   LGT SNOW  18  15  88 N32G39    29.92R VSB 1   WCI  -2
HASTINGS       LGT SNOW  20  16  84 N32G45    29.89R VSB 1   WCI   1
KEARNEY        CLOUDY    18  12  79 N29G37    29.94R WCI  -2
ORD            LGT SNOW  12   7  80 N25G35    30.01R VSB 3/4 WCI  -8
YORK           LGT SNOW  27  25  93 N21G29    29.84R VSB 1   WCI  13
AURORA         LGT SNOW  22  21  93 N29G36    29.88R WCI   5
LEXINGTON      CLOUDY    17  13  84 N31       30.00R FOG     WCI  -3
HOLDREGE       LGT SNOW  19  17  88 N22G35    29.94R WCI   3
HEBRON         LGT SNOW  32  30  93 N12       29.80R WCI  23

...NEBRASKA PANHANDLE...

CITY           SKY/WX    TMP DP  RH WIND       PRES   REMARKS
CHADRON        LGT SNOW  12   8  84 N14       30.20R VSB 1   WCI  -3
ALLIANCE       LGT SNOW  13   9  84 N16       30.09R FOG     WCI  -3
SCOTTSBLUFF    CLOUDY    23  17  78 NW20      30.11R WCI   8
SIDNEY         CLOUDY    18  14  84 N23       30.04R WCI   0

...WESTERN AND NORTH CENTRAL NEBRASKA...

CITY           SKY/WX    TMP DP  RH WIND       PRES   REMARKS
VALENTINE      LGT SNOW   8   3  80 N20G29    30.16R WCI -11
AINSWORTH      LGT SNOW   6   3  84 N29       30.12R WCI -17
ONEILL         LGT SNOW  10   6  87 N31G37    30.07R WCI -13
BROKEN BOW     FOG       12   8  84 N33G43    30.01R VSB 1/2 WCI -10
IMPERIAL       LGT SNOW  18  12  77 N25G32    30.05R WCI   0
NORTH PLATTE   FLURRIES  13   7  77 N21G31    30.06R WCI  -5
MCCOOK         LGT SNOW  19  14  81 NW25G35   30.02R WCI   1

...EASTERN NEBRASKA...

CITY           SKY/WX    TMP DP  RH WIND       PRES   REMARKS
NORFOLK        LGT SNOW  24  20  84 N22       29.93R FOG     WCI   9
SO SIOUX CITY  LGT SNOW  25  21  85 NE23G31   29.92S FOG     WCI  10
TEKAMAH        LGT SNOW  29  27  92 N21       29.86R FOG     WCI  16
ALBION         LGT SNOW  17  12  82 N22G36    29.95R WCI  -1
OMAHA EPPLEY   LGT SNOW  33  31  92 NE8       29.81F FOG     WCI  26
OFFUTT AFB     LGT SNOW  32  32 100 NE5       29.79S FOG     WCI  27
MILLARD        LGT SNOW  33  32  96 CALM      29.81S
LINCOLN        LGT SNOW  32  31  96 N12       29.80F FOG     WCI  23
NEBRASKA CITY  SNOW      32  32 100 N5        29.77F VSB 1/2 WCI  27
BEATRICE       LGT SNOW  32  32 100 N6        29.76F WCI  26
FALLS CITY     SNOW      32  31  96 NE3       29.74F VSB 1/2

...NORTHERN KANSAS...

CITY           SKY/WX    TMP DP  RH WIND       PRES   REMARKS
GOODLAND       CLOUDY    20  17  88 N25G35    29.98R WCI   2
HILL CITY      MIX PCPN  23  18  81 N26G36    29.95R WCI   6
NORTON         LGT SNOW  19  14  79 NW25G35   29.95  WCI   2
PHILLIPSBURG   LGT SNOW  27  25  93 NW24G35   29.93R WCI  12
SMITH CENTER   LGT SNOW  23  21  93 N28G33    29.88R WCI   6
BELOIT         CLOUDY    30  28  93 NW22G28   29.82R WCI  17
HAYS           CLOUDY    27  16  63 NW28G36   29.89R WCI  11
RUSSELL        CLOUDY    27  24  89 NW30G37   29.85R WCI  11
CONCORDIA      LGT SNOW  32  32 100 NW16      29.77S FOG     WCI  21
SALINA         LGT SNOW  34  32  92 NW21      29.77R FOG     WCI  22
TOPEKA         LGT RAIN  34  33  96 NE3       29.72F FOG



USA.gov is the U.S. government's official web portal to all federal, state and local government web resources and services.